Home   Weather   Kleppe   Past weeks

Flag for Norway Past Weather in Kleppe, Norway — Yesterday and Last 2 Weeks

Now
40 °F

Overcast.


Feels Like: 36 °F
Forecast: 36 / 46 °F
Wind: 6 mph from Southeast

Location: Stavanger / Sola

Current Time: Apr 27, 2017 at 11:17:41 am

Latest Report: Apr 27, 2017 at 10:00 am


Visibility: 25 mi

Pressure: 29.71 "Hg

Humidity: 83%

Dew Point: 36 °F

Location of KleppeLocation

Past Weather in Kleppe — Graph

°F

Kleppe Temperature Yesterday

Maximum temperature yesterday: 45 °F (at 2:00 pm)
Minimum temperature yesterday: 30 °F (at 6:00 am)
Average temperature yesterday: 39 °F

High & Low Weather Summary for the Past Weeks

 TemperatureHumidityPressure
High46 °F (Apr 25, 4:00 pm)100% (Apr 20, 6:00 pm)30.61 "Hg (Apr 20, 6:00 pm)
Low29 °F (Apr 17, 6:00 am)37% (Apr 25, 6:00 pm)29.50 "Hg (Apr 12, 3:00 pm)
Average40 °F78%29.94 "Hg
* Reported Apr 12 10:00 am — Apr 27 10:00 am, Kleppe, Weather by CustomWeather, © 2017

Note: Actual official high and low records may vary slightly from our data, if they occured in-between our weather recording intervals... More about our weather records

Advertising

Kleppe Weather History for the Previous 24 Hours

Scroll right to see more
 ConditionsComfort  
Time TempWeatherWind HumidityBarometerVisibility
10:00 am
Thu, Apr 27
40 °FOvercast.6 mph83%29.71 "Hg25 mi
9:00 am38 °FDrizzle. Overcast.6 mph86%29.70 "Hg22 mi
8:00 am37 °FDrizzle. Overcast.6 mph90%29.70 "Hg18 mi
7:00 am36 °FDrizzle. Overcast.6 mph91%29.71 "Hg6 mi
6:00 am37 °FDrizzle. Partly sunny.5 mph88%29.73 "Hg5 mi
5:00 am37 °FRain showers. Passing clouds.3 mph82%29.75 "Hg19 mi
4:00 am37 °FOvercast.3 mph80%29.78 "Hg28 mi
3:00 am36 °FClear.3 mph79%29.80 "Hg31 mi
2:00 am38 °FClear.2 mph72%29.83 "Hg31 mi
1:00 am38 °FPassing clouds.2 mph72%29.85 "Hg31 mi
12:00 am39 °FClear.5 mph67%29.86 "Hg25 mi
11:00 pm
Wed, Apr 26
39 °FClear.6 mph63%29.87 "Hg28 mi
8:00 pm41 °FSunny.9 mph61%29.87 "Hg19 mi
7:00 pm42 °FSunny.10 mph61%29.87 "Hg18 mi
6:00 pm42 °FSunny.12 mph58%29.88 "Hg17 mi
5:00 pm43 °FSunny.13 mph57%29.88 "Hg14 mi
4:00 pm45 °FSunny.10 mph60%29.88 "Hg18 mi
3:00 pm44 °FSunny.10 mph59%29.88 "Hg19 mi
2:00 pm45 °FPassing clouds.10 mph59%29.88 "Hg13 mi
1:00 pm43 °FPassing clouds.8 mph53%29.88 "Hg22 mi
12:00 pm42 °FScattered clouds.9 mph58%29.88 "Hg19 mi
11:00 am43 °FSunny.8 mph59%29.87 "Hg25 mi
Weather by CustomWeather, © 2017

See weather overviewHow to use our weather pages